Powrót do katalogu

STARLINK-36865

AktywnyŁącznośćVLEO
NORAD 67930·PAYLOAD·🇺🇸 United States

Wystrzelony Feb 22, 2026 z Vandenberg Space Force Base

Loading…

Następne Przeloty (najbliższe 24 godziny)

TLE

ŚwieżeSource: CelesTrak SupGP

Epoka: Sep 15, 2026, 02:56 UTC

1 67930C 26036AC  26258.12270833 -.00023852  00000+0 -86409-3 0  2580
2 67930  43.0007 255.1411 0001187 264.4369 208.4830 15.27584453    11

Śledź STARLINK-36865 w czasie rzeczywistym z AllMySat

Download on the App Store